Location: Helsinki
(60.1699°N, 24.9384°E)
Time: 19:22:21
(UTC+03:00)

Tiros 1 - All Passes

Search period start: 21 October 2020 00:00
Search period end: 30 October 2020 23:00
Orbit: 630 x 664 km, 48.4° (Epoch: 20 October)

Date Brightness Start Highest point End Pass type
(mag) Time Alt. Az. Time Alt. Az. Time Alt. Az.
21 Oct - 09:18:26 10° SSW 09:21:30 18° SSE 09:24:35 10° SE daylight
21 Oct - 10:59:24 10° SW 11:02:34 18° S 11:05:45 10° SE daylight
21 Oct - 12:42:20 10° SW 12:43:28 11° SSW 12:44:36 10° SSW daylight
22 Oct - 08:03:40 10° S 08:06:01 14° SSE 08:08:21 10° SE daylight
22 Oct - 09:43:43 10° SW 09:47:00 19° S 09:50:17 10° SE daylight
22 Oct - 11:25:20 10° SW 11:28:02 15° SSW 11:30:44 10° SSE daylight
23 Oct - 08:28:25 10° SSW 08:31:26 17° SSE 08:34:28 10° SE daylight
23 Oct - 10:09:19 10° SW 10:12:30 18° S 10:15:42 10° SE daylight
23 Oct - 11:52:01 10° SW 11:53:25 11° SSW 11:54:48 10° S daylight
24 Oct - 07:13:44 10° S 07:15:56 13° SSE 07:18:10 10° SE visible
24 Oct - 08:53:40 10° SW 08:56:56 19° S 09:00:12 10° SE daylight
24 Oct - 10:35:13 10° SW 10:37:58 16° SSW 10:40:43 10° SSE daylight
25 Oct - 06:38:24 10° SSW 06:41:22 17° SSE 06:44:21 10° SE visible
25 Oct - 08:19:14 10° SW 08:22:25 19° S 08:25:38 10° SE daylight
25 Oct - 10:01:45 10° SW 10:03:21 12° SSW 10:04:58 10° S daylight
26 Oct - 05:23:49 10° S 05:25:53 13° SSE 05:27:58 10° SE visible
26 Oct - 07:03:37 10° SW 07:06:51 19° S 07:10:06 10° SE daylight
26 Oct - 08:45:05 10° SW 08:47:54 16° SSW 08:50:43 10° SSE daylight
27 Oct - 05:48:24 10° SSW 05:51:19 17° SSE 05:54:14 10° SE visible
27 Oct - 07:29:09 10° SW 07:32:22 19° S 07:35:35 10° SE daylight
27 Oct - 09:11:31 10° SW 09:13:18 12° SSW 09:15:05 10° S daylight
28 Oct - 04:33:55 10° S 04:35:50 12° SSE 04:37:46 10° SE visible
28 Oct - 06:13:34 10° SW 06:16:47 19° S 06:20:01 10° SE visible
28 Oct - 07:54:58 10° SW 07:57:50 16° SSW 08:00:42 10° SSE daylight
29 Oct - 04:58:23 10° SSW 05:01:15 16° SSE 05:04:06 10° SE visible
29 Oct - 06:39:04 10° SW 06:42:17 19° S 06:45:31 10° SE visible
29 Oct - 08:21:18 10° SW 08:23:15 12° SSW 08:25:12 10° S daylight
30 Oct - 03:44:01 10° S 03:45:47 12° SSE 03:47:33 10° SE visible
30 Oct - 05:23:30 10° SW 05:26:43 19° S 05:29:56 10° SE visible
30 Oct - 07:04:51 10° SW 07:07:46 17° SSW 07:10:41 10° SSE daylight
